contact:dominique.lefevre@mio.osupytheas.fr, maurice.libes@osupytheas.fr, didier.mallarino@osupytheas.fr
Project:EMSO http://www.emso-fr.org/EMSO-France
Depth: 2436.0 m
Title:EMSO Ligure Ouest : Data MII capteur CSTAR
DateTime,Latitude,Longitude,Instrument_Serial,Reference_Counts,Signal_Counts,Corrected_Signal_raw_counts,Calculated_Beam_c_inverse_meters,Internal_thermistor_counts
DateTime,Latitude,Longitude,Instrument_Serial,Reference_Counts,Signal_Counts,Corrected_Signal_raw_counts,Calculated_Beam_c_inverse_meters,Internal_thermistor_counts
2019-08-29T00:00:44,42.805,6.029,CST-1368DR,8148,11407,15411,0.053,551
2019-08-29T00:03:45,42.805,6.029,CST-1368DR,8148,11405,15408,0.054,551
2019-08-29T00:06:47,42.805,6.029,CST-1368DR,8148,11403,15405,0.054,551
2019-08-29T00:09:49,42.805,6.029,CST-1368DR,8148,11406,15409,0.053,551
2019-08-29T00:12:50,42.805,6.029,CST-1368DR,8148,11406,15409,0.053,551
2019-08-29T00:15:52,42.805,6.029,CST-1368DR,8148,11406,15409,0.053,551
2019-08-29T00:18:53,42.805,6.029,CST-1368DR,8148,11406,15409,0.053,550
2019-08-29T00:21:55,42.805,6.029,CST-1368DR,8148,11403,15405,0.054,551
2019-08-29T00:24:57,42.805,6.029,CST-1368DR,8148,11408,15411,0.053,551
2019-08-29T00:27:59,42.805,6.029,CST-1368DR,8148,11407,15410,0.053,551
2019-08-29T00:31:01,42.805,6.029,CST-1368DR,8148,11407,15410,0.053,551
2019-08-29T00:34:02,42.805,6.029,CST-1368DR,8148,11406,15409,0.053,551
2019-08-29T00:37:04,42.805,6.029,CST-1368DR,8148,11405,15408,0.054,551
2019-08-29T00:40:06,42.805,6.029,CST-1368DR,8148,11406,15409,0.053,551
2019-08-29T00:43:07,42.805,6.029,CST-1368DR,8147,11406,15410,0.053,551
2019-08-29T00:46:09,42.805,6.029,CST-1368DR,8147,11404,15408,0.054,551
2019-08-29T00:49:11,42.805,6.029,CST-1368DR,8147,11406,15410,0.053,551
2019-08-29T00:52:12,42.805,6.029,CST-1368DR,8147,11405,15410,0.053,550
2019-08-29T00:55:14,42.805,6.029,CST-1368DR,8147,11404,15408,0.054,551
2019-08-29T00:58:15,42.805,6.029,CST-1368DR,8147,11403,15407,0.054,551
2019-08-29T01:01:17,42.805,6.029,CST-1368DR,8147,11406,15410,0.053,551
2019-08-29T01:04:19,42.805,6.029,CST-1368DR,8147,11404,15408,0.054,551
2019-08-29T01:07:20,42.805,6.029,CST-1368DR,8147,11406,15411,0.053,551
2019-08-29T01:10:22,42.805,6.029,CST-1368DR,8147,11405,15409,0.053,551
2019-08-29T01:13:24,42.805,6.029,CST-1368DR,8147,11404,15408,0.054,551
2019-08-29T01:16:25,42.805,6.029,CST-1368DR,8147,11404,15408,0.054,551
2019-08-29T01:19:27,42.805,6.029,CST-1368DR,8147,11402,15406,0.054,551
2019-08-29T01:22:29,42.805,6.029,CST-1368DR,8147,11404,15408,0.054,551
2019-08-29T01:25:30,42.805,6.029,CST-1368DR,8147,11403,15407,0.054,551
2019-08-29T01:28:32,42.805,6.029,CST-1368DR,8147,11405,15409,0.053,551
2019-08-29T01:31:33,42.805,6.029,CST-1368DR,8147,11406,15410,0.053,551
2019-08-29T01:34:35,42.805,6.029,CST-1368DR,8147,11401,15404,0.055,551
2019-08-29T01:37:37,42.805,6.029,CST-1368DR,8147,11404,15408,0.054,551
2019-08-29T01:40:38,42.805,6.029,CST-1368DR,8147,11402,15406,0.054,551
2019-08-29T01:43:40,42.805,6.029,CST-1368DR,8147,11404,15408,0.054,551
2019-08-29T01:46:42,42.805,6.029,CST-1368DR,8147,11404,15408,0.054,551
2019-08-29T01:49:43,42.805,6.029,CST-1368DR,8147,11404,15408,0.054,551
2019-08-29T01:52:45,42.805,6.029,CST-1368DR,8147,11403,15407,0.054,551
2019-08-29T01:55:46,42.805,6.029,CST-1368DR,8147,11404,15408,0.054,551
2019-08-29T01:58:48,42.805,6.029,CST-1368DR,8147,11403,15407,0.054,551
2019-08-29T02:01:50,42.805,6.029,CST-1368DR,8147,11403,15406,0.054,551
2019-08-29T02:04:51,42.805,6.029,CST-1368DR,8147,11401,15404,0.055,550
2019-08-29T02:07:53,42.805,6.029,CST-1368DR,8147,11405,15409,0.053,551
2019-08-29T02:10:55,42.805,6.029,CST-1368DR,8147,11405,15409,0.053,551
2019-08-29T02:13:56,42.805,6.029,CST-1368DR,8147,11403,15406,0.054,551
2019-08-29T02:16:58,42.805,6.029,CST-1368DR,8147,11399,15401,0.055,551
2019-08-29T02:20:00,42.805,6.029,CST-1368DR,8147,11404,15408,0.054,551
2019-08-29T02:23:01,42.805,6.029,CST-1368DR,8147,11405,15409,0.053,551
2019-08-29T02:26:03,42.805,6.029,CST-1368DR,8147,11404,15408,0.054,551
2019-08-29T02:29:05,42.805,6.029,CST-1368DR,8147,11404,15408,0.054,551
2019-08-29T02:32:06,42.805,6.029,CST-1368DR,8147,11405,15409,0.053,551
2019-08-29T02:35:08,42.805,6.029,CST-1368DR,8146,11403,15408,0.054,551
2019-08-29T02:38:09,42.805,6.029,CST-1368DR,8147,11403,15407,0.054,550
2019-08-29T02:41:11,42.805,6.029,CST-1368DR,8146,11399,15403,0.055,551
2019-08-29T02:44:13,42.805,6.029,CST-1368DR,8146,11401,15406,0.054,551
2019-08-29T02:47:14,42.805,6.029,CST-1368DR,8146,11402,15406,0.054,551
2019-08-29T02:50:16,42.805,6.029,CST-1368DR,8146,11401,15406,0.054,550
2019-08-29T02:53:18,42.805,6.029,CST-1368DR,8146,11401,15406,0.054,551
2019-08-29T02:56:19,42.805,6.029,CST-1368DR,8146,11402,15406,0.054,551
2019-08-29T02:59:21,42.805,6.029,CST-1368DR,8146,11399,15403,0.055,551
2019-08-29T03:02:23,42.805,6.029,CST-1368DR,8146,11402,15407,0.054,551
2019-08-29T03:05:24,42.805,6.029,CST-1368DR,8146,11402,15407,0.054,551
2019-08-29T03:08:26,42.805,6.029,CST-1368DR,8146,11400,15405,0.054,551
2019-08-29T03:11:28,42.805,6.029,CST-1368DR,8146,11402,15407,0.054,551
2019-08-29T03:14:29,42.805,6.029,CST-1368DR,8146,11399,15403,0.055,550
2019-08-29T03:17:31,42.805,6.029,CST-1368DR,8146,11403,15409,0.053,551
2019-08-29T03:20:33,42.805,6.029,CST-1368DR,8146,11401,15406,0.054,551
2019-08-29T03:23:34,42.805,6.029,CST-1368DR,8146,11402,15406,0.054,551
2019-08-29T03:26:36,42.805,6.029,CST-1368DR,8146,11403,15408,0.054,551
2019-08-29T03:29:37,42.805,6.029,CST-1368DR,8146,11402,15406,0.054,551
2019-08-29T03:32:39,42.805,6.029,CST-1368DR,8146,11403,15408,0.054,551
2019-08-29T03:35:41,42.805,6.029,CST-1368DR,8146,11400,15405,0.054,551
2019-08-29T03:38:42,42.805,6.029,CST-1368DR,8146,11402,15407,0.054,551
2019-08-29T03:41:44,42.805,6.029,CST-1368DR,8146,11401,15406,0.054,551
2019-08-29T03:44:46,42.805,6.029,CST-1368DR,8146,11399,15403,0.055,551
2019-08-29T03:47:47,42.805,6.029,CST-1368DR,8146,11402,15407,0.054,551
2019-08-29T03:50:49,42.805,6.029,CST-1368DR,8146,11401,15405,0.054,551
2019-08-29T03:53:50,42.805,6.029,CST-1368DR,8146,11402,15407,0.054,550
2019-08-29T03:56:52,42.805,6.029,CST-1368DR,8146,11403,15408,0.054,551
2019-08-29T03:59:54,42.805,6.029,CST-1368DR,8146,11398,15401,0.055,551
2019-08-29T04:02:55,42.805,6.029,CST-1368DR,8146,11402,15407,0.054,550
2019-08-29T04:05:57,42.805,6.029,CST-1368DR,8146,11402,15406,0.054,551
2019-08-29T04:08:59,42.805,6.029,CST-1368DR,8146,11402,15407,0.054,550
2019-08-29T04:12:00,42.805,6.029,CST-1368DR,8146,11402,15407,0.054,551
2019-08-29T04:15:02,42.805,6.029,CST-1368DR,8146,11401,15405,0.054,551
2019-08-29T04:18:04,42.805,6.029,CST-1368DR,8146,11401,15406,0.054,551
2019-08-29T04:21:05,42.805,6.029,CST-1368DR,8146,11402,15407,0.054,551
2019-08-29T04:24:07,42.805,6.029,CST-1368DR,8146,11402,15406,0.054,551
2019-08-29T04:27:08,42.805,6.029,CST-1368DR,8146,11402,15407,0.054,551
2019-08-29T04:30:10,42.805,6.029,CST-1368DR,8146,11402,15407,0.054,551
2019-08-29T04:33:12,42.805,6.029,CST-1368DR,8146,11402,15407,0.054,550
2019-08-29T04:36:13,42.805,6.029,CST-1368DR,8146,11403,15408,0.054,551
2019-08-29T04:39:15,42.805,6.029,CST-1368DR,8146,11399,15403,0.055,551
2019-08-29T04:42:17,42.805,6.029,CST-1368DR,8146,11402,15406,0.054,551
2019-08-29T04:45:18,42.805,6.029,CST-1368DR,8146,11402,15406,0.054,551
2019-08-29T04:48:20,42.805,6.029,CST-1368DR,8146,11402,15407,0.054,551
2019-08-29T04:51:21,42.805,6.029,CST-1368DR,8146,11401,15406,0.054,551
2019-08-29T04:54:23,42.805,6.029,CST-1368DR,8146,11400,15404,0.055,551
2019-08-29T04:57:25,42.805,6.029,CST-1368DR,8146,11402,15406,0.054,551
2019-08-29T05:00:26,42.805,6.029,CST-1368DR,8146,11401,15405,0.054,551
2019-08-29T05:03:28,42.805,6.029,CST-1368DR,8146,11400,15405,0.054,551
2019-08-29T05:06:30,42.805,6.029,CST-1368DR,8146,11400,15404,0.055,551
2019-08-29T05:09:31,42.805,6.029,CST-1368DR,8146,11402,15407,0.054,551
2019-08-29T05:12:33,42.805,6.029,CST-1368DR,8146,11402,15407,0.054,551
2019-08-29T05:15:35,42.805,6.029,CST-1368DR,8146,11401,15405,0.054,551
2019-08-29T05:18:36,42.805,6.029,CST-1368DR,8146,11403,15408,0.054,551
2019-08-29T05:21:38,42.805,6.029,CST-1368DR,8146,11401,15406,0.054,550
2019-08-29T05:24:39,42.805,6.029,CST-1368DR,8146,11399,15403,0.055,551
2019-08-29T05:27:41,42.805,6.029,CST-1368DR,8146,11401,15405,0.054,551
2019-08-29T05:30:43,42.805,6.029,CST-1368DR,8146,11400,15404,0.055,550
2019-08-29T05:33:45,42.805,6.029,CST-1368DR,8146,11401,15405,0.054,551
2019-08-29T05:36:46,42.805,6.029,CST-1368DR,8146,11402,15407,0.054,551
2019-08-29T05:39:48,42.805,6.029,CST-1368DR,8146,11402,15407,0.054,551
2019-08-29T05:42:49,42.805,6.029,CST-1368DR,8145,11401,15407,0.054,551
2019-08-29T05:45:51,42.805,6.029,CST-1368DR,8146,11401,15405,0.054,551
2019-08-29T05:48:53,42.805,6.029,CST-1368DR,8145,11401,15407,0.054,551
2019-08-29T05:51:54,42.805,6.029,CST-1368DR,8145,11401,15407,0.054,551
2019-08-29T05:54:56,42.805,6.029,CST-1368DR,8145,11401,15407,0.054,551
2019-08-29T05:57:58,42.805,6.029,CST-1368DR,8145,11401,15407,0.054,551
2019-08-29T06:01:00,42.805,6.029,CST-1368DR,8145,11401,15408,0.054,550
2019-08-29T06:04:02,42.805,6.029,CST-1368DR,8145,11401,15407,0.054,551
2019-08-29T06:07:03,42.805,6.029,CST-1368DR,8145,11401,15407,0.054,551
2019-08-29T06:10:05,42.805,6.029,CST-1368DR,8145,11400,15406,0.054,551
2019-08-29T06:13:07,42.805,6.029,CST-1368DR,8145,11402,15409,0.053,551
2019-08-29T06:16:08,42.805,6.029,CST-1368DR,8145,11402,15409,0.053,551
2019-08-29T06:19:10,42.805,6.029,CST-1368DR,8145,11401,15407,0.054,551
2019-08-29T06:22:11,42.805,6.029,CST-1368DR,8145,11401,15407,0.054,550
2019-08-29T06:25:13,42.805,6.029,CST-1368DR,8145,11400,15406,0.054,551
2019-08-29T06:28:15,42.805,6.029,CST-1368DR,8145,11400,15405,0.054,551
2019-08-29T06:31:16,42.805,6.029,CST-1368DR,8145,11401,15407,0.054,550
2019-08-29T06:34:18,42.805,6.029,CST-1368DR,8145,11402,15409,0.053,551
2019-08-29T06:37:20,42.805,6.029,CST-1368DR,8145,11400,15406,0.054,551
2019-08-29T06:40:21,42.805,6.029,CST-1368DR,8145,11401,15407,0.054,551
2019-08-29T06:43:23,42.805,6.029,CST-1368DR,8145,11401,15407,0.054,550
2019-08-29T06:46:25,42.805,6.029,CST-1368DR,8145,11400,15406,0.054,551
2019-08-29T06:49:26,42.805,6.029,CST-1368DR,8145,11401,15408,0.054,551
2019-08-29T06:52:28,42.805,6.029,CST-1368DR,8145,11401,15407,0.054,551
2019-08-29T06:55:29,42.805,6.029,CST-1368DR,8145,11397,15402,0.055,551
2019-08-29T06:58:31,42.805,6.029,CST-1368DR,8145,11399,15405,0.054,551
2019-08-29T07:01:33,42.805,6.029,CST-1368DR,8145,11401,15407,0.054,551
2019-08-29T07:04:34,42.805,6.029,CST-1368DR,8145,11400,15406,0.054,551
2019-08-29T07:07:36,42.805,6.029,CST-1368DR,8145,11400,15405,0.054,551
2019-08-29T07:10:38,42.805,6.029,CST-1368DR,8145,11401,15407,0.054,551
2019-08-29T07:13:39,42.805,6.029,CST-1368DR,8145,11401,15407,0.054,551
2019-08-29T07:16:41,42.805,6.029,CST-1368DR,8145,11400,15406,0.054,551
2019-08-29T07:19:43,42.805,6.029,CST-1368DR,8145,11401,15407,0.054,550
2019-08-29T07:22:44,42.805,6.029,CST-1368DR,8145,11399,15404,0.055,551
2019-08-29T07:25:46,42.805,6.029,CST-1368DR,8145,11399,15405,0.054,551
2019-08-29T07:28:47,42.805,6.029,CST-1368DR,8145,11399,15404,0.055,551
2019-08-29T07:31:49,42.805,6.029,CST-1368DR,8145,11397,15402,0.055,551
2019-08-29T07:34:51,42.805,6.029,CST-1368DR,8145,11398,15403,0.055,551
2019-08-29T07:37:52,42.805,6.029,CST-1368DR,8145,11397,15402,0.055,550
2019-08-29T07:40:54,42.805,6.029,CST-1368DR,8145,11399,15405,0.054,551
2019-08-29T07:43:56,42.805,6.029,CST-1368DR,8145,11400,15406,0.054,551
2019-08-29T07:46:57,42.805,6.029,CST-1368DR,8145,11399,15405,0.054,551
2019-08-29T07:49:59,42.805,6.029,CST-1368DR,8144,11400,15407,0.054,551
2019-08-29T07:53:01,42.805,6.029,CST-1368DR,8144,11401,15409,0.053,551
2019-08-29T07:56:02,42.805,6.029,CST-1368DR,8144,11400,15407,0.054,551
2019-08-29T07:59:04,42.805,6.029,CST-1368DR,8144,11401,15409,0.053,551
2019-08-29T08:02:06,42.805,6.029,CST-1368DR,8144,11400,15407,0.054,551
2019-08-29T08:05:07,42.805,6.029,CST-1368DR,8144,11397,15404,0.055,551
2019-08-29T08:08:09,42.805,6.029,CST-1368DR,8144,11397,15404,0.055,551
2019-08-29T08:11:10,42.805,6.029,CST-1368DR,8144,11399,15406,0.054,551
2019-08-29T08:14:12,42.805,6.029,CST-1368DR,8144,11397,15404,0.055,551
2019-08-29T08:17:14,42.805,6.029,CST-1368DR,8144,11401,15410,0.053,551
2019-08-29T08:20:15,42.805,6.029,CST-1368DR,8144,11398,15405,0.054,551
2019-08-29T08:23:17,42.805,6.029,CST-1368DR,8144,11400,15407,0.054,551
2019-08-29T08:26:19,42.805,6.029,CST-1368DR,8144,11399,15407,0.054,551
2019-08-29T08:29:20,42.805,6.029,CST-1368DR,8144,11400,15407,0.054,551
2019-08-29T08:32:22,42.805,6.029,CST-1368DR,8144,11398,15405,0.054,551
2019-08-29T08:35:24,42.805,6.029,CST-1368DR,8144,11398,15405,0.054,551
2019-08-29T08:38:25,42.805,6.029,CST-1368DR,8144,11398,15405,0.054,551
2019-08-29T08:41:27,42.805,6.029,CST-1368DR,8144,11399,15406,0.054,550
2019-08-29T08:44:28,42.805,6.029,CST-1368DR,8144,11395,15401,0.055,551
2019-08-29T08:47:30,42.805,6.029,CST-1368DR,8144,11401,15409,0.053,551
2019-08-29T08:50:32,42.805,6.029,CST-1368DR,8144,11400,15408,0.054,551
2019-08-29T08:53:33,42.805,6.029,CST-1368DR,8144,11401,15409,0.053,551
2019-08-29T08:56:35,42.805,6.029,CST-1368DR,8144,11399,15406,0.054,550
2019-08-29T08:59:37,42.805,6.029,CST-1368DR,8144,11399,15406,0.054,551
2019-08-29T09:02:38,42.805,6.029,CST-1368DR,8144,11401,15409,0.053,551
2019-08-29T09:05:40,42.805,6.029,CST-1368DR,8144,11399,15406,0.054,551
2019-08-29T09:08:42,42.805,6.029,CST-1368DR,8144,11400,15408,0.054,551
2019-08-29T09:11:43,42.805,6.029,CST-1368DR,8144,11401,15409,0.053,551
2019-08-29T09:14:45,42.805,6.029,CST-1368DR,8144,11401,15410,0.053,551
2019-08-29T09:17:47,42.805,6.029,CST-1368DR,8144,11400,15407,0.054,550
2019-08-29T09:20:48,42.805,6.029,CST-1368DR,8144,11399,15406,0.054,551
2019-08-29T09:23:50,42.805,6.029,CST-1368DR,8144,11401,15409,0.053,551
2019-08-29T09:26:52,42.805,6.029,CST-1368DR,8144,11400,15407,0.054,551
2019-08-29T09:29:53,42.805,6.029,CST-1368DR,8144,11396,15402,0.055,551
2019-08-29T09:32:55,42.805,6.029,CST-1368DR,8144,11400,15407,0.054,551
2019-08-29T09:35:57,42.805,6.029,CST-1368DR,8144,11400,15408,0.054,551
2019-08-29T09:38:58,42.805,6.029,CST-1368DR,8144,11398,15405,0.054,551
2019-08-29T09:42:00,42.805,6.029,CST-1368DR,8144,11399,15407,0.054,551
2019-08-29T09:45:01,42.805,6.029,CST-1368DR,8144,11398,15404,0.055,551
2019-08-29T09:48:03,42.805,6.029,CST-1368DR,8144,11397,15404,0.055,551
2019-08-29T09:51:05,42.805,6.029,CST-1368DR,8144,11397,15404,0.055,551
2019-08-29T09:54:06,42.805,6.029,CST-1368DR,8144,11394,15399,0.056,551
2019-08-29T09:57:08,42.805,6.029,CST-1368DR,8144,11400,15407,0.054,551
2019-08-29T10:00:10,42.805,6.029,CST-1368DR,8144,11396,15403,0.055,551
2019-08-29T10:03:11,42.805,6.029,CST-1368DR,8144,11400,15408,0.054,551
2019-08-29T10:06:13,42.805,6.029,CST-1368DR,8143,11400,15410,0.053,551
2019-08-29T10:09:15,42.805,6.029,CST-1368DR,8143,11398,15407,0.054,551
2019-08-29T10:12:16,42.805,6.029,CST-1368DR,8143,11395,15403,0.055,551
2019-08-29T10:15:18,42.805,6.029,CST-1368DR,8144,11399,15406,0.054,551
2019-08-29T10:18:20,42.805,6.029,CST-1368DR,8144,11398,15405,0.054,551
2019-08-29T10:21:21,42.805,6.029,CST-1368DR,8144,11399,15406,0.054,551
2019-08-29T10:24:23,42.805,6.029,CST-1368DR,8144,11399,15407,0.054,551
2019-08-29T10:27:25,42.805,6.029,CST-1368DR,8144,11398,15405,0.054,550
2019-08-29T10:30:26,42.805,6.029,CST-1368DR,8143,11396,15404,0.055,551
2019-08-29T10:33:28,42.805,6.029,CST-1368DR,8144,11399,15406,0.054,551
2019-08-29T10:36:29,42.805,6.029,CST-1368DR,8143,11399,15408,0.054,551
2019-08-29T10:39:31,42.805,6.029,CST-1368DR,8143,11398,15406,0.054,551
2019-08-29T10:42:33,42.805,6.029,CST-1368DR,8143,11400,15409,0.053,551
2019-08-29T10:45:34,42.805,6.029,CST-1368DR,8143,11400,15410,0.053,551
2019-08-29T10:48:36,42.805,6.029,CST-1368DR,8143,11398,15407,0.054,551
2019-08-29T10:51:38,42.805,6.029,CST-1368DR,8143,11400,15409,0.053,550
2019-08-29T10:54:39,42.805,6.029,CST-1368DR,8143,11398,15407,0.054,551
2019-08-29T10:57:41,42.805,6.029,CST-1368DR,8143,11399,15408,0.054,551
2019-08-29T11:00:43,42.805,6.029,CST-1368DR,8143,11399,15408,0.054,551
2019-08-29T11:03:44,42.805,6.029,CST-1368DR,8143,11398,15407,0.054,551
2019-08-29T11:06:46,42.805,6.029,CST-1368DR,8143,11398,15407,0.054,551
2019-08-29T11:09:48,42.805,6.029,CST-1368DR,8143,11397,15406,0.054,551
2019-08-29T11:12:49,42.805,6.029,CST-1368DR,8143,11398,15407,0.054,551
2019-08-29T11:15:51,42.805,6.029,CST-1368DR,8143,11397,15406,0.054,551
2019-08-29T11:18:52,42.805,6.029,CST-1368DR,8143,11399,15408,0.054,551
2019-08-29T11:21:54,42.805,6.029,CST-1368DR,8143,11397,15406,0.054,551
2019-08-29T11:24:56,42.805,6.029,CST-1368DR,8143,11398,15407,0.054,550
2019-08-29T11:27:58,42.805,6.029,CST-1368DR,8143,11399,15408,0.054,551
2019-08-29T11:31:00,42.805,6.029,CST-1368DR,8143,11399,15408,0.054,550
2019-08-29T11:34:02,42.805,6.029,CST-1368DR,8143,11399,15408,0.054,551
2019-08-29T11:37:03,42.805,6.029,CST-1368DR,8143,11397,15405,0.054,551
2019-08-29T11:40:05,42.805,6.029,CST-1368DR,8143,11399,15408,0.054,551
2019-08-29T11:43:07,42.805,6.029,CST-1368DR,8143,11399,15408,0.054,551
2019-08-29T11:46:09,42.805,6.029,CST-1368DR,8143,11397,15406,0.054,550
2019-08-29T11:49:10,42.805,6.029,CST-1368DR,8143,11399,15408,0.054,551
2019-08-29T11:52:12,42.805,6.029,CST-1368DR,8143,11394,15402,0.055,551
2019-08-29T11:55:13,42.805,6.029,CST-1368DR,8143,11398,15407,0.054,551
2019-08-29T11:58:15,42.805,6.029,CST-1368DR,8143,11399,15409,0.053,551
2019-08-29T12:01:17,42.805,6.029,CST-1368DR,8143,11392,15399,0.056,551
2019-08-29T12:04:18,42.805,6.029,CST-1368DR,8143,11395,15403,0.055,551
2019-08-29T12:07:20,42.805,6.029,CST-1368DR,8143,11394,15402,0.055,551
2019-08-29T12:10:22,42.805,6.029,CST-1368DR,8143,11398,15406,0.054,551
2019-08-29T12:13:23,42.805,6.029,CST-1368DR,8143,11396,15405,0.054,551
2019-08-29T12:16:25,42.805,6.029,CST-1368DR,8143,11398,15407,0.054,551
2019-08-29T12:19:27,42.805,6.029,CST-1368DR,8143,11397,15405,0.054,550
2019-08-29T12:22:29,42.805,6.029,CST-1368DR,8143,11397,15406,0.054,550
2019-08-29T12:25:31,42.805,6.029,CST-1368DR,8143,11398,15406,0.054,551
2019-08-29T12:28:32,42.805,6.029,CST-1368DR,8143,11394,15402,0.055,551
2019-08-29T12:31:34,42.805,6.029,CST-1368DR,8143,11396,15404,0.055,551
2019-08-29T12:34:36,42.805,6.029,CST-1368DR,8143,11396,15405,0.054,551
2019-08-29T12:37:37,42.805,6.029,CST-1368DR,8143,11398,15407,0.054,551
2019-08-29T12:40:39,42.805,6.029,CST-1368DR,8143,11397,15406,0.054,551
2019-08-29T12:43:41,42.805,6.029,CST-1368DR,8143,11398,15406,0.054,550
2019-08-29T12:46:42,42.805,6.029,CST-1368DR,8143,11398,15406,0.054,551
2019-08-29T12:49:44,42.805,6.029,CST-1368DR,8143,11397,15405,0.054,551
2019-08-29T12:52:46,42.805,6.029,CST-1368DR,8143,11396,15404,0.055,551
2019-08-29T12:55:47,42.805,6.029,CST-1368DR,8143,11398,15406,0.054,551
2019-08-29T12:58:49,42.805,6.029,CST-1368DR,8143,11399,15408,0.054,550
2019-08-29T13:01:50,42.805,6.029,CST-1368DR,8143,11397,15406,0.054,551
2019-08-29T13:04:52,42.805,6.029,CST-1368DR,8143,11399,15408,0.054,551
2019-08-29T13:07:54,42.805,6.029,CST-1368DR,8142,11398,15408,0.054,551
2019-08-29T13:10:55,42.805,6.029,CST-1368DR,8143,11396,15405,0.054,551
2019-08-29T13:13:57,42.805,6.029,CST-1368DR,8142,11396,15406,0.054,551
2019-08-29T13:16:59,42.805,6.029,CST-1368DR,8142,11397,15408,0.054,551
2019-08-29T13:20:01,42.805,6.029,CST-1368DR,8142,11396,15406,0.054,551
2019-08-29T13:23:02,42.805,6.029,CST-1368DR,8142,11396,15406,0.054,551
2019-08-29T13:26:04,42.805,6.029,CST-1368DR,8142,11397,15407,0.054,551
2019-08-29T13:29:05,42.805,6.029,CST-1368DR,8142,11397,15408,0.054,551
2019-08-29T13:32:07,42.805,6.029,CST-1368DR,8142,11397,15408,0.054,551
2019-08-29T13:35:09,42.805,6.029,CST-1368DR,8142,11396,15406,0.054,551
2019-08-29T13:38:10,42.805,6.029,CST-1368DR,8142,11396,15406,0.054,551
2019-08-29T13:41:12,42.805,6.029,CST-1368DR,8142,11398,15408,0.054,551
2019-08-29T13:44:14,42.805,6.029,CST-1368DR,8142,11398,15408,0.054,551
2019-08-29T13:47:15,42.805,6.029,CST-1368DR,8142,11398,15408,0.054,551
2019-08-29T13:50:17,42.805,6.029,CST-1368DR,8142,11395,15405,0.054,551
2019-08-29T13:53:18,42.805,6.029,CST-1368DR,8142,11399,15409,0.053,550
2019-08-29T13:56:20,42.805,6.029,CST-1368DR,8142,11396,15406,0.054,550
2019-08-29T13:59:22,42.805,6.029,CST-1368DR,8142,11397,15408,0.054,550
2019-08-29T14:02:23,42.805,6.029,CST-1368DR,8142,11397,15407,0.054,551
2019-08-29T14:05:25,42.805,6.029,CST-1368DR,8142,11396,15405,0.054,551
2019-08-29T14:08:27,42.805,6.029,CST-1368DR,8142,11395,15405,0.054,551
2019-08-29T14:11:28,42.805,6.029,CST-1368DR,8142,11394,15403,0.055,551
2019-08-29T14:14:30,42.805,6.029,CST-1368DR,8142,11397,15407,0.054,551
2019-08-29T14:17:32,42.805,6.029,CST-1368DR,8142,11396,15406,0.054,551
2019-08-29T14:20:33,42.805,6.029,CST-1368DR,8142,11398,15409,0.053,551
2019-08-29T14:23:35,42.805,6.029,CST-1368DR,8142,11394,15403,0.055,551
2019-08-29T14:26:36,42.805,6.029,CST-1368DR,8142,11397,15408,0.054,551
2019-08-29T14:29:38,42.805,6.029,CST-1368DR,8142,11394,15403,0.055,550
2019-08-29T14:32:40,42.805,6.029,CST-1368DR,8142,11398,15408,0.054,551
2019-08-29T14:35:41,42.805,6.029,CST-1368DR,8142,11396,15406,0.054,551
2019-08-29T14:38:43,42.805,6.029,CST-1368DR,8142,11396,15406,0.054,551
2019-08-29T14:41:45,42.805,6.029,CST-1368DR,8142,11396,15406,0.054,551
2019-08-29T14:44:46,42.805,6.029,CST-1368DR,8142,11397,15408,0.054,551
2019-08-29T14:47:48,42.805,6.029,CST-1368DR,8142,11397,15408,0.054,551
2019-08-29T14:50:50,42.805,6.029,CST-1368DR,8142,11397,15408,0.054,551
2019-08-29T14:53:51,42.805,6.029,CST-1368DR,8142,11398,15408,0.054,551
2019-08-29T14:56:53,42.805,6.029,CST-1368DR,8142,11399,15409,0.053,551
2019-08-29T14:59:55,42.805,6.029,CST-1368DR,8142,11398,15409,0.053,551
2019-08-29T15:02:56,42.805,6.029,CST-1368DR,8142,11396,15406,0.054,551
2019-08-29T15:05:58,42.805,6.029,CST-1368DR,8142,11397,15408,0.054,551
2019-08-29T15:08:59,42.805,6.029,CST-1368DR,8142,11399,15410,0.053,551
2019-08-29T15:12:01,42.805,6.029,CST-1368DR,8142,11396,15406,0.054,551
2019-08-29T15:15:03,42.805,6.029,CST-1368DR,8142,11399,15410,0.053,551
2019-08-29T15:18:04,42.805,6.029,CST-1368DR,8142,11399,15409,0.053,551
2019-08-29T15:21:06,42.805,6.029,CST-1368DR,8142,11397,15407,0.054,551
2019-08-29T15:24:08,42.805,6.029,CST-1368DR,8142,11398,15409,0.053,551
2019-08-29T15:27:09,42.805,6.029,CST-1368DR,8142,11396,15406,0.054,551
2019-08-29T15:30:11,42.805,6.029,CST-1368DR,8142,11396,15406,0.054,550
2019-08-29T15:33:13,42.805,6.029,CST-1368DR,8141,11397,15408,0.054,551
2019-08-29T15:36:14,42.805,6.029,CST-1368DR,8141,11395,15406,0.054,551
2019-08-29T15:39:16,42.805,6.029,CST-1368DR,8141,11398,15410,0.053,551
2019-08-29T15:42:17,42.805,6.029,CST-1368DR,8141,11396,15407,0.054,551
2019-08-29T15:45:19,42.805,6.029,CST-1368DR,8141,11397,15409,0.053,551
2019-08-29T15:48:21,42.805,6.029,CST-1368DR,8141,11398,15410,0.053,551
2019-08-29T15:51:22,42.805,6.029,CST-1368DR,8141,11397,15409,0.053,550
2019-08-29T15:54:24,42.805,6.029,CST-1368DR,8141,11398,15410,0.053,551
2019-08-29T15:57:26,42.805,6.029,CST-1368DR,8141,11398,15410,0.053,551
2019-08-29T16:00:27,42.805,6.029,CST-1368DR,8141,11396,15407,0.054,551
2019-08-29T16:03:29,42.805,6.029,CST-1368DR,8141,11398,15410,0.053,551
2019-08-29T16:06:31,42.805,6.029,CST-1368DR,8141,11396,15408,0.054,551
2019-08-29T16:09:32,42.805,6.029,CST-1368DR,8141,11395,15406,0.054,551
2019-08-29T16:12:34,42.805,6.029,CST-1368DR,8141,11397,15409,0.053,551
2019-08-29T16:15:35,42.805,6.029,CST-1368DR,8141,11397,15408,0.054,551
2019-08-29T16:18:37,42.805,6.029,CST-1368DR,8141,11395,15407,0.054,550
2019-08-29T16:21:39,42.805,6.029,CST-1368DR,8141,11394,15405,0.054,551
2019-08-29T16:24:40,42.805,6.029,CST-1368DR,8141,11395,15406,0.054,551
2019-08-29T16:27:42,42.805,6.029,CST-1368DR,8141,11393,15403,0.055,551
2019-08-29T16:30:44,42.805,6.029,CST-1368DR,8141,11395,15406,0.054,550
2019-08-29T16:33:45,42.805,6.029,CST-1368DR,8141,11396,15408,0.054,551
2019-08-29T16:36:47,42.805,6.029,CST-1368DR,8141,11394,15405,0.054,551